Weather History for KFET - July, 2013

Change the Weather History Date:

Thursday, July 4, 2013

  Actual Average Record
Temperature  
Mean Temperature 74 °F -  
Max Temperature 87 °F 88 °F 103 °F (1990)
Min Temperature 62 °F 64 °F 48 °F (1967)
Cooling Degree Days 9    
Growing Degree Days 24 (Base 50)    
Moisture  
Dew Point 57 °F    
Average Humidity 56    
Maximum Humidity 79    
Minimum Humidity 35    
Precipitation  
Precipitation 0.00 in - - ()
Sea Level Pressure  
Sea Level Pressure 29.95 in    
Wind  
Wind Speed 9 mph (SSE)    
Max Wind Speed 17 mph    
Max Gust Speed 24 mph    
Visibility 10 miles    
Events      
Averages and records for this station are not official NWS values.
T = Trace of Precipitation, MM = Missing Value Source: NWS Daily Summary

Daily Weather History Graph

Daily Weather History Graph

Search for Another Location

Airport or City:

Trip Planner

Search our weather history database for the weather conditions in past years. The results will help you decide how hot, cold, wet, or windy it might be!

Date:

Astronomy

Jul. 04, 2013 Rise Set
Actual Time 5:57 AM CDT 9:02 PM CDT
Civil Twilight 5:24 AM CDT 9:36 PM CDT
Nautical Twilight 4:41 AM CDT 10:19 PM CDT
Astronomical Twilight 3:50 AM CDT 11:10 PM CDT
Moon 3:16 AM CDT (7/4) 6:07 PM CDT (7/4)
Length of Visible Light 16h 12m
Length of Day
15h 04m
Waning Crescent, 11% of the Moon is Illuminated
Jul 4
Waning Crescent
Jul 8
New
Jul 15
First Quarter
Jul 22
Full
Jul 29
Last Quarter

Hourly Weather History & Observations

Time (CDT) Temp. Heat Index Dew Point Humidity Pressure Visibility Wind Dir Wind Speed Gust Speed Precip Events Conditions
12:15 AM 68.2 °F - 57.2 °F 68% 29.99 in 10.0 mi SE 6.9 mph - N/A   Clear
12:35 AM 68.0 °F - 56.8 °F 67% 29.99 in 10.0 mi SSE 5.8 mph - N/A   Clear
12:55 AM 68.4 °F - 56.8 °F 67% 29.99 in 10.0 mi SE 5.8 mph - N/A   Clear
1:15 AM 68.0 °F - 57.2 °F 68% 29.98 in 10.0 mi SE 8.1 mph - N/A   Clear
1:35 AM 67.5 °F - 57.4 °F 70% 29.99 in 10.0 mi SE 8.1 mph - N/A   Clear
1:55 AM 68.2 °F - 57.4 °F 68% 29.98 in 10.0 mi South 8.1 mph - N/A   Clear
2:15 AM 68.4 °F - 57.4 °F 68% 29.98 in 10.0 mi SSE 8.1 mph - N/A   Clear
2:35 AM 66.9 °F - 57.4 °F 71% 29.98 in 10.0 mi SE 5.8 mph - N/A   Clear
2:55 AM 65.1 °F - 57.6 °F 76% 29.98 in 10.0 mi SE 5.8 mph - N/A   Clear
3:15 AM 63.9 °F - 57.4 °F 79% 29.98 in 10.0 mi SE 4.6 mph - N/A   Clear
3:35 AM 63.7 °F - 56.8 °F 78% 29.98 in 10.0 mi SSE 4.6 mph - N/A   Clear
3:55 AM 65.7 °F - 56.1 °F 71% 29.98 in 10.0 mi South 8.1 mph - N/A   Clear
4:15 AM 65.3 °F - 55.8 °F 71% 29.98 in 10.0 mi SE 8.1 mph - N/A   Clear
4:35 AM 63.1 °F - 55.9 °F 77% 29.98 in 10.0 mi SE 6.9 mph - N/A   Clear
4:55 AM 63.0 °F - 55.9 °F 78% 29.98 in 10.0 mi SE 5.8 mph - N/A   Clear
5:15 AM 62.8 °F - 55.8 °F 78% 29.99 in 10.0 mi SE 5.8 mph - N/A   Clear
5:35 AM 62.8 °F - 55.8 °F 78% 29.99 in 10.0 mi SE 4.6 mph - N/A   Clear
5:55 AM 62.4 °F - 55.6 °F 78% 29.99 in 10.0 mi SE 4.6 mph - N/A   Clear
6:15 AM 62.1 °F - 55.6 °F 79% 29.99 in 10.0 mi SE 3.5 mph - N/A   Clear
6:35 AM 63.5 °F - 55.4 °F 75% 29.99 in 10.0 mi South 4.6 mph - N/A   Clear
6:55 AM 64.9 °F - 55.8 °F 72% 29.99 in 10.0 mi SSE 4.6 mph - N/A   Clear
7:15 AM 65.5 °F - 56.1 °F 72% 29.99 in 10.0 mi SSE 3.5 mph - N/A   Clear
7:35 AM 66.4 °F - 56.5 °F 70% 29.99 in 10.0 mi SSE 4.6 mph - N/A   Clear
7:55 AM 67.1 °F - 57.0 °F 70% 30.00 in 10.0 mi SSE 6.9 mph - N/A   Clear
8:15 AM 68.0 °F - 57.2 °F 68% 30.00 in 10.0 mi South 5.8 mph - N/A   Clear
8:35 AM 68.9 °F - 57.6 °F 67% 29.99 in 10.0 mi South 6.9 mph - N/A   Clear
8:55 AM 70.0 °F - 58.3 °F 66% 29.99 in 10.0 mi South 6.9 mph - N/A   Clear
10:15 AM 75.2 °F - 60.3 °F 60% 29.99 in 10.0 mi South 8.1 mph - N/A   Clear
10:35 AM 76.3 °F - 59.7 °F 56% 29.99 in 10.0 mi South 11.5 mph - N/A   Clear
10:55 AM 77.2 °F - 60.3 °F 56% 29.99 in 10.0 mi South 8.1 mph - N/A   Scattered Clouds
11:15 AM 77.4 °F - 60.1 °F 55% 29.99 in 10.0 mi South 10.4 mph - N/A   Scattered Clouds
11:35 AM 79.5 °F - 59.7 °F 51% 29.98 in 10.0 mi South 13.8 mph - N/A   Clear
11:55 AM 80.8 °F 81.4 °F 60.1 °F 49% 29.98 in 10.0 mi South 11.5 mph 18.4 mph N/A   Clear
12:35 PM 82.2 °F 82.0 °F 57.7 °F 43% 29.97 in 10.0 mi South 12.7 mph - N/A   Clear
1:15 PM 83.5 °F 82.9 °F 57.4 °F 41% 29.96 in 10.0 mi South 16.1 mph 19.6 mph N/A   Clear
1:35 PM 84.0 °F 83.3 °F 57.2 °F 40% 29.96 in 10.0 mi South 16.1 mph 23.0 mph N/A   Clear
1:55 PM 84.9 °F 84.1 °F 57.7 °F 39% 29.94 in 10.0 mi SSE 15.0 mph 21.9 mph N/A   Clear
2:15 PM 85.5 °F 84.6 °F 57.6 °F 39% 29.94 in 10.0 mi SE 17.3 mph 21.9 mph N/A   Clear
2:35 PM 86.0 °F 84.9 °F 57.0 °F 37% 29.94 in 10.0 mi South 12.7 mph 23.0 mph N/A   Clear
2:55 PM 86.5 °F 85.4 °F 57.6 °F 37% 29.94 in 10.0 mi SSE 13.8 mph 19.6 mph N/A   Clear
3:15 PM 86.5 °F 85.3 °F 56.8 °F 36% 29.93 in 10.0 mi SSE 13.8 mph 23.0 mph N/A   Clear
3:35 PM 86.9 °F 85.5 °F 56.1 °F 35% 29.93 in 10.0 mi SSE 13.8 mph 24.2 mph N/A   Clear
3:55 PM 86.9 °F 85.6 °F 57.2 °F 36% 29.93 in 10.0 mi South 12.7 mph 23.0 mph N/A   Clear
4:15 PM 86.9 °F 85.9 °F 57.7 °F 37% 29.92 in 10.0 mi SSE 17.3 mph 24.2 mph N/A   Clear
4:35 PM 86.9 °F 85.9 °F 57.7 °F 37% 29.92 in 10.0 mi South 15.0 mph 19.6 mph N/A   Clear
4:55 PM 86.9 °F 85.9 °F 57.9 °F 37% 29.92 in 10.0 mi SSE 15.0 mph 21.9 mph N/A   Clear
5:15 PM 86.5 °F 85.4 °F 57.6 °F 37% 29.92 in 10.0 mi South 12.7 mph 23.0 mph N/A   Clear
5:35 PM 86.9 °F 85.9 °F 57.4 °F 37% 29.91 in 10.0 mi SSE 11.5 mph 18.4 mph N/A   Clear
5:55 PM 86.0 °F 84.9 °F 56.8 °F 37% 29.91 in 10.0 mi SSE 15.0 mph 19.6 mph N/A   Clear
6:15 PM 86.0 °F 84.9 °F 57.0 °F 37% 29.91 in 10.0 mi SSE 11.5 mph 18.4 mph N/A   Clear
6:35 PM 85.3 °F 84.3 °F 56.8 °F 38% 29.91 in 10.0 mi SSE 11.5 mph - N/A   Clear
6:55 PM 84.7 °F 83.7 °F 56.3 °F 38% 29.90 in 10.0 mi SSE 12.7 mph 19.6 mph N/A   Clear
7:15 PM 84.0 °F 83.0 °F 55.6 °F 38% 29.90 in 10.0 mi SSE 15.0 mph - N/A   Clear
7:55 PM 81.9 °F 81.8 °F 57.9 °F 44% 29.89 in 10.0 mi SSE 11.5 mph - N/A   Clear
8:15 PM 81.1 °F 81.2 °F 57.2 °F 44% 29.89 in 10.0 mi SE 11.5 mph - N/A   Clear
8:35 PM 80.1 °F 80.3 °F 56.3 °F 44% 29.89 in 10.0 mi SSE 11.5 mph - N/A   Clear
8:55 PM 79.3 °F - 56.1 °F 45% 29.89 in 10.0 mi SSE 11.5 mph 19.6 mph N/A   Clear
9:15 PM 77.9 °F - 57.2 °F 49% 29.89 in 10.0 mi SE 10.4 mph - N/A   Clear
9:35 PM 77.0 °F - 57.6 °F 51% 29.89 in 10.0 mi SE 11.5 mph - N/A   Clear
9:55 PM 76.8 °F - 57.6 °F 51% 29.89 in 10.0 mi SE 10.4 mph - N/A   Clear
10:15 PM 75.4 °F - 58.3 °F 55% 29.90 in 10.0 mi SE 10.4 mph - N/A   Clear
10:35 PM 75.2 °F - 58.5 °F 56% 29.91 in 10.0 mi SE 12.7 mph - N/A   Clear
10:55 PM 74.5 °F - 59.0 °F 58% 29.91 in 10.0 mi SE 10.4 mph - N/A   Clear
11:15 PM 74.3 °F - 59.0 °F 59% 29.91 in 10.0 mi SE 12.7 mph - N/A   Clear
11:35 PM 73.8 °F - 58.6 °F 59% 29.91 in 10.0 mi SE 11.5 mph - N/A   Clear
11:55 PM 73.0 °F - 58.5 °F 60% 29.91 in 10.0 mi SE 11.5 mph - N/A   Clear